Content
SEND FEEDBACK

Daily
Averages
Monthly
Summary
Greece

ATHENS, GREECE


Home > Europe > Greece
Elevation: 69 feet     Latitude: 37 54N     Longitude: 023 44E

WEATHER
 
SELECT A DAY
Number of Records: 81,986;   Date Range: 4/14/01 - 10/29/14
 
SHARE

PRINT THIS DATA

[ ← Previous Day ]
WEATHER ALMANAC - APRIL 24, 2013
[ Next Day → ]
[ °C ]   °F
Weather ElementAverageHighLow
Temperature61.7 °F73.4 °F (3:20 pm)48.2 °F (4:50 am)
Dewpoint44.1 °F48.2 °F (8:20 am)37.4 °F (5:20 pm)
Humidity55.6 %82 % (1:20 am)29 % (5:20 pm)
Barometer30.29 in30.33 in (10:20 am)30.24 in (1:50 am)
Wind Speed8 mph16.1 mph (3:50 pm)
Weather ElementAverage
Visibility6.2 mi
Wind DirectionENE (82.1 °)

Weather ElementTotal
Precipitation---
Heating Degree Days4.2 (Base 65)
Growing Degree Days10.8 (Base 50)
Averaged from 47 records on April 24, 2013
WEATHER CONDITIONS BREAKOUT
WIND DIRECTION BREAKOUT
WEATHER BY HOUR - APRIL 24, 2013
[ °C ]   °F
Local TimeTemperatureDewpointHumidityBarometerVisibilityWind DirectionWind SpeedGust SpeedPrecipitationEventsConditions
12:50 AM51.8 °F44.6 °F76 %30.27 in6.2 miVariable1.2 mphScattered Clouds
1:20 AM50.0 °F44.6 °F82 %30.27 in6.2 miVariable1.2 mphScattered Clouds
1:50 AM51.8 °F44.6 °F76 %30.24 in6.2 miNW (310°)2.3 mphScattered Clouds
2:20 AM53.6 °F46.4 °F77 %30.24 in6.2 miNE (40°)8.1 mphScattered Clouds
2:50 AM53.6 °F44.6 °F72 %30.24 in6.2 miENE (60°)5.8 mphScattered Clouds
3:20 AM53.6 °F44.6 °F72 %30.24 in6.2 miENE (60°)8.1 mphScattered Clouds
3:50 AM53.6 °F44.6 °F72 %30.24 in6.2 miENE (70°)5.8 mphScattered Clouds
4:20 AM53.6 °F42.8 °F67 %30.24 in6.2 miENE (70°)8.1 mphScattered Clouds
4:50 AM48.2 °F41.0 °F76 %30.24 in6.2 miENE (60°)4.6 mphScattered Clouds
5:20 AM48.2 °F42.8 °F82 %30.24 in6.2 miEast (80°)3.5 mphScattered Clouds
5:50 AM48.2 °F42.8 °F82 %30.27 in6.2 miNE (50°)4.6 mphPartly Cloudy
6:20 AM48.2 °F42.8 °F82 %30.27 in6.2 miWNW (300°)4.6 mphPartly Cloudy
6:50 AM48.2 °F41.0 °F76 %30.27 in6.2 miSW (230°)3.5 mphPartly Cloudy
7:20 AM55.4 °F46.4 °F72 %30.27 in6.2 miVariable2.3 mphScattered Clouds
7:50 AM53.6 °F44.6 °F72 %30.30 in6.2 miSW (230°)1.2 mphScattered Clouds
8:20 AM57.2 °F48.2 °F72 %30.30 in6.2 miCalmScattered Clouds
8:50 AM62.6 °F48.2 °F59 %30.30 in6.2 miVariable2.3 mphScattered Clouds
9:20 AM64.4 °F46.4 °F52 %30.30 inNE (50°)12.7 mphClear
9:50 AM66.2 °F46.4 °F49 %30.30 inNE (40°)12.7 mphClear
10:20 AM68.0 °F48.2 °F49 %30.33 inNE (50°)10.4 mphClear
10:50 AM68.0 °F48.2 °F49 %30.33 inENE (60°)12.7 mphClear
11:20 AM68.0 °F46.4 °F46 %30.33 inNE (50°)12.7 mphClear
11:50 AM69.8 °F46.4 °F43 %30.33 inNE (40°)13.8 mphClear
12:20 PM69.8 °F46.4 °F43 %30.33 inNE (50°)15.0 mphClear
12:50 PM71.6 °F44.6 °F38 %30.33 inNE (50°)12.7 mphClear
1:20 PM71.6 °F42.8 °F35 %30.33 inNE (50°)13.8 mphClear
1:50 PM71.6 °F44.6 °F38 %30.33 inNE (50°)13.8 mphClear
2:20 PM69.8 °F42.8 °F38 %30.33 inNE (40°)15.0 mphClear
2:50 PM71.6 °F42.8 °F35 %30.33 inENE (60°)15.0 mphClear
3:20 PM73.4 °F42.8 °F33 %30.30 inENE (70°)12.7 mphClear
3:50 PM73.4 °F42.8 °F33 %30.30 inENE (60°)16.1 mphClear
4:20 PM71.6 °F41.0 °F33 %30.30 inNE (50°)13.8 mphClear
4:50 PM71.6 °F41.0 °F33 %30.30 inENE (70°)12.7 mphClear
5:20 PM71.6 °F37.4 °F29 %30.30 inENE (60°)16.1 mphClear
5:50 PM71.6 °F41.0 °F33 %30.30 inNE (50°)15.0 mphClear
6:20 PM69.8 °F39.2 °F33 %30.30 inNNE (30°)13.8 mphClear
6:50 PM69.8 °F41.0 °F35 %30.30 inNNE (30°)10.4 mphClear
7:20 PM68.0 °F44.6 °F43 %30.30 inNNE (20°)5.8 mphClear
7:50 PM66.2 °F46.4 °F49 %30.30 inNNE (20°)3.5 mphClear
8:20 PM62.6 °F46.4 °F55 %30.30 inNE (50°)6.9 mphClear
8:50 PM62.6 °F46.4 °F55 %30.30 inNE (50°)3.5 mphClear
9:20 PM62.6 °F44.6 °F52 %30.30 inVariable2.3 mphClear
9:50 PM62.6 °F44.6 °F52 %30.30 inWNW (290°)3.5 mphClear
10:20 PM59.0 °F44.6 °F59 %30.33 inWNW (300°)3.5 mphClear
10:50 PM55.4 °F44.6 °F67 %30.30 inVariable2.3 mphClear
11:20 PM51.8 °F42.8 °F71 %30.30 inWest (270°)3.5 mphClear
11:50 PM53.6 °F42.8 °F67 %30.30 inWNW (290°)4.6 mphClear
Hourly data recorded from LGAV, located miles away from Athens, Greece







STORIES FROM OUR PARTNERS